Regional Weather Roundup
Issued by NWS Upton, NY

Current Version | Previous Version | Text Only | Print | Product List | Glossary Off
Versions: 1 2 3 4 5 6 7 8 9 10 11 12 13 14 15 16 17 18 19 20 21 22 23 24 25 26 27 28 29 30 31 32 33 34 35 36 37 38 39 40 41 42 43 44 45 46 47 48 49 50
000 ASUS41 KOKX 230405 RWROKX REGIONAL WEATHER ROUNDUP NATIONAL WEATHER SERVICE NEW YORK NY 1200 AM EDT TUE SEP 23 2014 NOTE: "FAIR" INDICATES FEW OR NO CLOUDS BELOW 12,000 FEET WITH NO SIGNIFICANT WEATHER AND/OR OBSTRUCTIONS TO VISIBILITY. NYZ071-072-176-178-NJZ106-104-230500- NEW YORK CITY METRO AREA CITY SKY/WX TMP DP RH WIND PRES REMARKS CENTRAL PARK CLEAR 56 38 50 VRB7 30.20R LAGUARDIA APRT PTCLDY 57 41 55 NW14G22 30.16R KENNEDY INTL PTCLDY 57 37 47 NW17G24 30.18R NEWARK/LIBERTY PTCLDY 56 39 53 NW9 30.18R BRNX BOT. GARD N/A 54 37 54 SW3 30.17F TETERBORO CLEAR 54 38 54 NW7 30.16S $$ NYZ177-179-078>081-230500- LONG ISLAND NEW YORK CITY SKY/WX TMP DP RH WIND PRES REMARKS FARMINGDALE CLEAR 56 39 53 NW7 30.16R ISLIP PTCLDY 54 40 59 N7 30.14R SHIRLEY PTCLDY 52 40 63 N7 30.16R WESTHAMPTON PTCLDY 55 38 52 N12 30.16R MONTAUK POINT N/A 57 40 52 NW16G25 30.15R $$ NYZ052-065-067-230500- HUDSON VALLEY CITY SKY/WX TMP DP RH WIND PRES REMARKS WHITE PLAINS CLEAR 51 38 60 NW6 30.16R NEWBURGH CLEAR 48 41 76 CALM 30.17R MONTGOMERY CLEAR 44 38 79 SE7 30.16R POUGHKEEPSIE CLEAR 46 40 79 VRB3 30.15R ALBANY PTCLDY 48 41 76 CALM 30.16R $$ NJZ001-105-106-008-010-013-015-019>022-104-230500- NEW JERSEY CITY SKY/WX TMP DP RH WIND PRES REMARKS NEWARK/LIBERTY PTCLDY 56 39 53 NW9 30.18R TETERBORO CLEAR 54 38 54 NW7 30.16S CALDWELL CLEAR 53 38 56 W5 30.18S MORRISTOWN CLEAR 48 41 76 CALM 30.19R SOMERVILLE CLEAR 47 40 76 CALM 30.19R LINDEN FAIR 58 44 59 NW5 30.21R SUSSEX CLEAR 45 40 82 CALM 30.18S ANDOVER N/A 44 40 85 CALM 30.19S TRENTON CLEAR 52 40 63 CALM 30.20R MILLVILLE MOCLDY 56 43 61 NW8 30.20R ATLANTIC CITY MOCLDY 51 47 86 NW6 30.19R WRIGHTSTOWN PTCLDY 51 42 72 N5 30.18R TOMS RIVER PTCLDY 52 43 71 CALM 30.19S BELMAR PTCLDY 54 39 58 NW8 30.19R $$ PAZ047>061-062-071-230500- EASTERN PENNSYLVANIA CITY SKY/WX TMP DP RH WIND PRES REMARKS PHILADELPHIA PTCLDY 58 41 53 NW9 30.21R ALLENTOWN CLEAR 51 38 60 NW7 30.21R SCRANTON CLEAR 50 37 61 CALM 30.21R $$ CTZ002-004>006-009-010-012-RIZ004-006-007-MAZ004-011-015-230500- SOUTHERN NEW ENGLAND IN CT CITY SKY/WX TMP DP RH WIND PRES REMARKS BRADLEY INTL CLEAR 50 39 66 N5 30.12R HARTFORD CLEAR 53 38 56 W5 30.13S DANBURY CLEAR 45 40 82 SW3 30.16S WTRBRY/OXFORD CLEAR 46 36 66 CALM 30.15S BRIDGEPORT CLEAR 54 41 61 SW3 30.16R MERIDEN CLEAR 44 41 89 CALM 30.14R NEW HAVEN CLEAR 55 40 56 NW3 30.15R CHESTER FAIR 50 39 66 NW3 30.14R GROTON CLEAR 51 39 63 NW8 30.12R WILLIMANTIC CLEAR 48 40 73 W3 30.12R IN RI CITY SKY/WX TMP DP RH WIND PRES REMARKS PROVIDENCE CLEAR 50 39 66 W5 30.11R BLOCK ISLAND CLEAR 54 37 54 N12G18 30.12R WESTERLY CLEAR 52 39 61 CALM 30.13R IN MA CITY SKY/WX TMP DP RH WIND PRES REMARKS BOSTON CLEAR 54 38 54 NW8 30.09R WORCESTER CLEAR 47 38 71 NW6 30.09R WESTFIELD CLEAR 52 39 61 NW12G21 30.11S PROVINCETOWN CLEAR 55 39 54 NW21G28 30.08R NANTUCKET CLEAR 58 42 55 NW18 30.07R $$ ANZ330-335-338-340-345-350-353-355-230500- COASTAL MARINE OBSERVATIONS STATION/POSITION TIME SKY/WX TEMP WIND PRES VSBY WAVE AIR SEA DIR/SP/G HT/PER (UTC) (F) (DEG/KT/KT) (MB) (MI) (FT/S) NY HARB ENTRANCE 0400 60 69 330/ 19/ 23 1021.6 4/ 4 4S FIRE IS 0400 69 N/A 4/10 20S FIRE ISLAND 0400 60 68 330/ 17/ 21 1020.9 5/10 23SW MTP 0400 N/A 5/10 HUDSON CANYON 0400 63 70 330/ 21/ 25 1020.0 6/ 9 EXECUTION ROCKS 0400 58 69 310/ 12/ 16 N/A WESTERN LI SOUND 0400 58 330/ 10/ 16 N/A 1 CENTRAL LI SOUND 0300 58 69 330/ 17/ 21 N/A 3/ 5 EASTERN LI SOUND 0300 56 67 320/ 14/ 19 N/A ROBBINS REEF 0400 57 320/ 12/ 16 1020.7 $$ >>>>>>>>>>>>>>>>>>>>>>>>>>>> KEY <<<<<<<<<<<<<<<<<<<<<<<<<<< > < > SKY/WX - SKY CONDITION/PRESENT WEATHER < > TMP - TEMPERATURE IN FAHRENHEIT < > DP - DEWPOINT IN FAHRENHEIT < > RH - RELATIVE HUMIDITY IN PERCENT < > WIND - DIRECTION AND SPEED IN MPH < > PRES - MEAN SEA LEVEL PRESSURE IN INCHES OF HG < > WCI - WIND CHILL INDEX < > VSB - VISIBILITY IN MILES < > HX - HEAT INDEX < > TC - TEMPERATURE IN CELSIUS < > VRB - VARIABLE WIND DIRECTION < > < >>>>>>>>>>>>>>>>>>>>>>>>>>>> KEY <<<<<<<<<<<<<<<<<<<<<<<<<<<

USA.gov is the U.S. government's official web portal to all federal, state and local government web resources and services.